This is the latest recevied weather packets stored in our database for station/object K7TUS-6. If no packets are shown the sender has not sent any weather packets the latest 10 day(s).
| Time | Temp. | Humidity | Pressure | Rain* | Wind** | Luminosity | Snow |
|---|---|---|---|---|---|---|---|
| 1777736103 | 15.56° C | 5% | 986.3 hPa | - | - | - | - |
| 1777735802 | 15.56° C | 6% | 985.2 hPa | - | - | - | - |
| 1777735508 | 15° C | 6% | 985.3 hPa | - | - | - | - |
| 1777734907 | 15° C | 6% | 985.7 hPa | - | - | - | - |
| 1777734607 | 15° C | 5% | 985.3 hPa | - | - | - | - |
| 1777734006 | 14.44° C | 6% | 985.2 hPa | - | - | - | - |
| 1777733405 | 14.44° C | 6% | 985 hPa | - | - | - | - |
| 1777733105 | 14.44° C | 9% | 985.8 hPa | - | - | - | - |
| 1777732504 | 15° C | 5% | 984.7 hPa | - | - | - | - |
| 1777732203 | 15° C | 3% | 985.5 hPa | - | - | - | - |
| 1777731903 | 15° C | 3% | 985.4 hPa | - | - | - | - |
| 1777731602 | 15° C | 1% | 985.1 hPa | - | - | - | - |
| 1777731308 | 15.56° C | 2% | 984.7 hPa | - | - | - | - |
| 1777731008 | 15° C | 100% | 984.3 hPa | - | - | - | - |
| 1777730707 | 15° C | 2% | 984.2 hPa | - | - | - | - |
| 1777730107 | 15° C | 1% | 984.4 hPa | - | - | - | - |
| 1777729806 | 14.44° C | 100% | 983.6 hPa | - | - | - | - |
| 1777729205 | 12.78° C | 1% | 984.1 hPa | - | - | - | - |
| 1777728904 | 12.22° C | 1% | 984.4 hPa | - | - | - | - |
| 1777728303 | 11.11° C | 1% | 983.2 hPa | - | - | - | - |
| 1777728003 | 10° C | 1% | 983.3 hPa | - | - | - | - |
| 1777727708 | 10° C | 1% | 983.2 hPa | - | - | - | - |
| 1777727108 | 9.44° C | 100% | 983.2 hPa | - | - | - | - |
| 1777725906 | 9.44° C | 1% | 983.3 hPa | - | - | - | - |
| 1777725022 | 9.44° C | 1% | 983.3 hPa | - | - | - | - |
* Rain since midnight (hover to see other rain measurements)
** Current wind speed in m/s (hover to see current wind gust speed)